TimeCDT,TemperatureF,Dew PointF,Humidity,Sea Level PressureIn,VisibilityMPH,Wind Direction,Wind SpeedMPH,Gust SpeedMPH,PrecipitationIn,Events,Conditions,WindDirDegrees,DateUTC
12:15 AM,63.5,56.8,79,30.09,10.0,East,4.6,-,N/A,,Clear,90,2013-07-03 05:15:00
12:35 AM,63.0,56.8,80,30.08,10.0,Calm,Calm,-,N/A,,Clear,0,2013-07-03 05:35:00
12:55 AM,62.8,57.2,82,30.08,10.0,Calm,Calm,-,N/A,,Clear,0,2013-07-03 05:55:00
1:15 AM,63.0,56.3,79,30.08,10.0,Calm,Calm,-,N/A,,Clear,0,2013-07-03 06:15:00
1:35 AM,62.6,57.7,84,30.08,10.0,Calm,Calm,-,N/A,,Clear,0,2013-07-03 06:35:00
1:55 AM,62.6,57.6,84,30.08,10.0,Calm,Calm,-,N/A,,Clear,0,2013-07-03 06:55:00
2:15 AM,61.9,58.1,87,30.07,10.0,Calm,Calm,-,N/A,,Clear,0,2013-07-03 07:15:00
2:35 AM,61.7,58.1,88,30.07,10.0,Calm,Calm,-,N/A,,Clear,0,2013-07-03 07:35:00
2:55 AM,60.8,57.2,88,30.06,10.0,North,3.5,-,N/A,,Clear,360,2013-07-03 07:55:00
3:15 AM,60.8,57.2,88,30.06,10.0,Calm,Calm,-,N/A,,Clear,0,2013-07-03 08:15:00
3:35 AM,59.9,57.2,91,30.06,10.0,Calm,Calm,-,N/A,,Scattered Clouds,0,2013-07-03 08:35:00
3:55 AM,59.9,57.4,91,30.07,10.0,Calm,Calm,-,N/A,,Scattered Clouds,0,2013-07-03 08:55:00
4:15 AM,59.9,57.6,92,30.07,10.0,Calm,Calm,-,N/A,,Clear,0,2013-07-03 09:15:00
4:35 AM,60.1,57.6,91,30.07,10.0,Calm,Calm,-,N/A,,Clear,0,2013-07-03 09:35:00
4:55 AM,60.8,57.7,90,30.07,10.0,Calm,Calm,-,N/A,,Clear,0,2013-07-03 09:55:00
5:15 AM,60.1,57.7,92,30.08,10.0,Calm,Calm,-,N/A,,Clear,0,2013-07-03 10:15:00
5:35 AM,59.9,57.7,93,30.08,10.0,Calm,Calm,-,N/A,,Clear,0,2013-07-03 10:35:00
5:55 AM,60.4,57.6,90,30.08,10.0,Calm,Calm,-,N/A,,Clear,0,2013-07-03 10:55:00
6:15 AM,60.4,57.4,90,30.08,10.0,Calm,Calm,-,N/A,,Clear,0,2013-07-03 11:15:00
6:35 AM,60.6,57.9,91,30.08,10.0,NNE,3.5,-,N/A,,Clear,30,2013-07-03 11:35:00
6:55 AM,61.9,58.3,88,30.08,10.0,Calm,Calm,-,N/A,,Clear,0,2013-07-03 11:55:00
7:15 AM,63.0,58.8,86,30.09,10.0,Calm,Calm,-,N/A,,Clear,0,2013-07-03 12:15:00
7:35 AM,63.3,59.0,86,30.09,10.0,Calm,Calm,-,N/A,,Clear,0,2013-07-03 12:35:00
7:55 AM,64.4,59.0,83,30.10,10.0,East,3.5,-,N/A,,Scattered Clouds,90,2013-07-03 12:55:00
8:15 AM,65.1,58.5,79,30.10,10.0,Calm,Calm,-,N/A,,Mostly Cloudy,0,2013-07-03 13:15:00
8:35 AM,66.9,58.5,74,30.10,10.0,Calm,Calm,-,N/A,,Overcast,0,2013-07-03 13:35:00
8:55 AM,68.7,58.1,69,30.10,10.0,Calm,Calm,-,N/A,,Overcast,0,2013-07-03 13:55:00
9:15 AM,69.8,57.7,65,30.10,10.0,Calm,Calm,-,N/A,,Mostly Cloudy,0,2013-07-03 14:15:00
9:35 AM,69.8,57.0,64,30.11,10.0,Calm,Calm,-,N/A,,Clear,0,2013-07-03 14:35:00
9:55 AM,70.9,57.7,63,30.10,10.0,Calm,Calm,-,N/A,,Clear,0,2013-07-03 14:55:00
10:15 AM,71.8,55.9,57,30.11,10.0,Calm,Calm,-,N/A,,Clear,0,2013-07-03 15:15:00
10:35 AM,71.8,56.3,58,30.11,10.0,Calm,Calm,-,N/A,,Scattered Clouds,0,2013-07-03 15:35:00
10:55 AM,72.3,55.8,56,30.11,10.0,Calm,Calm,-,N/A,,Scattered Clouds,0,2013-07-03 15:55:00
11:15 AM,73.8,55.0,52,30.11,10.0,Calm,Calm,-,N/A,,Scattered Clouds,0,2013-07-03 16:15:00
11:35 AM,74.5,54.9,50,30.10,10.0,Calm,Calm,-,N/A,,Scattered Clouds,0,2013-07-03 16:35:00
11:55 AM,76.1,55.4,49,30.10,10.0,Calm,Calm,-,N/A,,Scattered Clouds,0,2013-07-03 16:55:00
12:15 PM,75.9,53.4,45,30.10,10.0,Calm,Calm,-,N/A,,Clear,0,2013-07-03 17:15:00
12:35 PM,77.0,54.3,45,30.10,10.0,Calm,Calm,-,N/A,,Clear,0,2013-07-03 17:35:00
12:55 PM,78.3,54.9,44,30.09,10.0,Calm,Calm,-,N/A,,Clear,0,2013-07-03 17:55:00
1:15 PM,78.3,55.2,45,30.09,10.0,ESE,3.5,-,N/A,,Clear,120,2013-07-03 18:15:00
1:35 PM,78.1,54.0,43,30.08,10.0,Calm,Calm,-,N/A,,Clear,0,2013-07-03 18:35:00
1:55 PM,78.6,55.8,45,30.08,10.0,North,3.5,-,N/A,,Clear,360,2013-07-03 18:55:00
2:15 PM,79.2,55.4,44,30.08,10.0,ESE,4.6,-,N/A,,Clear,120,2013-07-03 19:15:00
2:35 PM,78.8,55.6,45,30.08,10.0,SSE,3.5,-,N/A,,Mostly Cloudy,150,2013-07-03 19:35:00
2:55 PM,77.9,54.5,44,30.08,10.0,Calm,Calm,-,N/A,,Mostly Cloudy,0,2013-07-03 19:55:00
3:15 PM,79.7,55.4,43,30.07,10.0,Calm,Calm,-,N/A,,Mostly Cloudy,0,2013-07-03 20:15:00
3:35 PM,78.8,54.3,43,30.06,10.0,Calm,Calm,-,N/A,,Scattered Clouds,0,2013-07-03 20:35:00
3:55 PM,79.0,55.4,44,30.06,10.0,Calm,Calm,-,N/A,,Scattered Clouds,0,2013-07-03 20:55:00
4:15 PM,79.3,53.8,41,30.06,10.0,Calm,Calm,-,N/A,,Clear,0,2013-07-03 21:15:00
4:35 PM,80.2,55.8,43,30.06,10.0,Calm,Calm,-,N/A,,Clear,0,2013-07-03 21:35:00
4:55 PM,80.6,55.9,43,30.05,10.0,SSE,3.5,-,N/A,,Clear,150,2013-07-03 21:55:00
5:15 PM,79.9,54.0,41,30.05,10.0,Calm,Calm,-,N/A,,Clear,0,2013-07-03 22:15:00
5:35 PM,81.0,53.1,38,30.05,10.0,Calm,Calm,-,N/A,,Scattered Clouds,0,2013-07-03 22:35:00
5:55 PM,80.4,57.4,45,30.04,10.0,South,4.6,-,N/A,,Scattered Clouds,170,2013-07-03 22:55:00
6:15 PM,80.2,56.1,43,30.04,10.0,Calm,Calm,-,N/A,,Scattered Clouds,0,2013-07-03 23:15:00
6:35 PM,80.2,57.7,46,30.04,10.0,SE,3.5,-,N/A,,Clear,140,2013-07-03 23:35:00
6:55 PM,79.7,57.9,47,30.04,10.0,Calm,Calm,-,N/A,,Clear,0,2013-07-03 23:55:00
7:15 PM,79.7,58.3,48,30.04,10.0,Calm,Calm,-,N/A,,Clear,0,2013-07-04 00:15:00
7:35 PM,78.6,61.2,55,30.04,10.0,Calm,Calm,-,N/A,,Clear,0,2013-07-04 00:35:00
7:55 PM,76.8,61.2,58,30.04,10.0,ESE,3.5,-,N/A,,Clear,120,2013-07-04 00:55:00
8:15 PM,74.7,63.3,68,30.05,10.0,SE,3.5,-,N/A,,Clear,130,2013-07-04 01:15:00
8:35 PM,73.8,61.7,66,30.05,10.0,SE,4.6,-,N/A,,Clear,130,2013-07-04 01:35:00
8:55 PM,72.1,61.7,70,30.05,10.0,SE,4.6,-,N/A,,Clear,130,2013-07-04 01:55:00
9:15 PM,69.4,62.2,78,30.06,10.0,ESE,4.6,-,N/A,,Clear,110,2013-07-04 02:15:00
9:35 PM,68.9,61.7,78,30.07,10.0,Calm,Calm,-,N/A,,Clear,0,2013-07-04 02:35:00
9:55 PM,68.4,61.3,78,30.08,10.0,SE,3.5,-,N/A,,Clear,130,2013-07-04 02:55:00
10:15 PM,68.0,61.5,80,30.08,10.0,Calm,Calm,-,N/A,,Clear,0,2013-07-04 03:15:00
10:35 PM,67.8,61.3,80,30.08,10.0,Calm,Calm,-,N/A,,Clear,0,2013-07-04 03:35:00
10:55 PM,67.5,61.2,80,30.08,10.0,Calm,Calm,-,N/A,,Clear,0,2013-07-04 03:55:00
11:15 PM,66.7,60.8,81,30.08,10.0,Calm,Calm,-,N/A,,Clear,0,2013-07-04 04:15:00
11:35 PM,66.4,60.4,81,30.07,10.0,Calm,Calm,-,N/A,,Clear,0,2013-07-04 04:35:00
11:55 PM,65.7,61.2,85,30.08,10.0,East,3.5,-,N/A,,Scattered Clouds,100,2013-07-04 04:55:00